Flag for Australia Weather past 2 weeks in Adelaide, South Australia, Australia

Now
50 °F

Clear.


Feels Like: 50 °F
Forecast: 47 / 66 °F
Wind: No wind

Location: Adelaide Airport

Current Time: May 25, 2015 at 6:06:01 AM

Latest Report: May 25, 2015 at 5:30 AM


Visibility: 10 mi

Pressure: 30.36 "Hg

Humidity: 82%

Dew point: 45 °F

Location of AdelaideLocation

Historic Weather in Adelaide — Graph

°F

Adelaide temperature yesterday

Maximum temperature yesterday: 63 °F (at 1:00 PM)
Minimum temperature yesterday: 43 °F (at 2:00 AM)
Average temperature yesterday: 53 °F

Past Weeks' High & Low Weather Summary

 TemperatureHumidityPressure
High70 °F (May 18, 10:30 AM)100% (May 14, 2:00 AM)30.66 "Hg (May 14, 2:00 AM)
Low39 °F (May 17, 6:30 AM)42% (May 12, 4:30 PM)29.74 "Hg (May 19, 1:30 PM)
Average55 °F76%30.30 "Hg
* Reported May 10 4:30 AM — May 25 4:30 AM, Adelaide, Weather by CustomWeather, © 2015

Note: Actual official high and low records may vary slightly from our data, if they occured in-between our weather recording intervals... More about our weather records

Advertising

Adelaide weather history for previous 24 hours

 ConditionsComfort  
Time TempWeatherWind HumidityBarometerVisibility
4:30 AM
Mon, May 25
54 °FClear.6 mph77%30.33 "Hg10 mi
4:00 AM54 °FClear.6 mph77%30.33 "Hg10 mi
3:30 AM52 °FClear.3 mph82%30.33 "Hg10 mi
3:00 AM52 °FClear.5 mph88%30.36 "Hg10 mi
2:30 AM52 °FClear.5 mph82%30.36 "Hg10 mi
2:00 AM52 °FClear.No wind88%30.36 "Hg10 mi
1:30 AM52 °FClear.No wind82%30.36 "Hg10 mi
1:00 AM52 °FClear.1 mph82%30.36 "Hg10 mi
12:30 AM52 °FClear.5 mph82%30.36 "Hg10 mi
12:00 AM52 °FClear.5 mph82%30.36 "Hg10 mi
11:30 PM
Sun, May 24
52 °FClear.1 mph82%30.36 "Hg10 mi
11:00 PM55 °FClear.No wind72%30.36 "Hg10 mi
10:30 PM54 °FClear.5 mph77%30.36 "Hg10 mi
10:00 PM54 °FClear.5 mph77%30.36 "Hg10 mi
9:30 PM54 °FClear.6 mph77%30.36 "Hg10 mi
9:00 PM55 °FClear.7 mph67%30.36 "Hg10 mi
8:30 PM55 °FClear.3 mph67%30.33 "Hg10 mi
8:00 PM55 °FClear.7 mph72%30.33 "Hg10 mi
7:30 PM55 °FClear.6 mph72%30.36 "Hg10 mi
7:00 PM55 °FClear.5 mph72%30.36 "Hg10 mi
6:30 PM57 °FClear.3 mph67%30.36 "Hg10 mi
6:00 PM55 °FClear.6 mph72%30.36 "Hg10 mi
5:30 PM57 °FClear.5 mph67%30.33 "Hg10 mi
5:00 PM57 °FClear.5 mph67%30.33 "Hg10 mi
4:30 PM59 °FSunny.7 mph63%30.36 "Hg10 mi
4:00 PM59 °FSunny.7 mph63%30.33 "Hg10 mi
3:30 PM61 °FSunny.8 mph55%30.33 "Hg10 mi
3:00 PM61 °FSunny.8 mph59%30.33 "Hg10 mi
2:30 PM61 °FSunny.9 mph55%30.33 "Hg10 mi
2:00 PM63 °FSunny.7 mph52%30.33 "Hg10 mi
1:30 PM63 °FSunny.7 mph49%30.33 "Hg10 mi
1:00 PM63 °FSunny.8 mph49%30.36 "Hg10 mi
12:30 PM61 °FSunny.10 mph52%30.36 "Hg10 mi
12:00 PM61 °FSunny.9 mph52%30.36 "Hg10 mi
11:30 AM61 °FSunny.10 mph52%30.36 "Hg10 mi
11:00 AM59 °FSunny.7 mph59%30.39 "Hg10 mi
10:30 AM55 °FSunny.7 mph67%30.39 "Hg10 mi
10:00 AM55 °FSunny.8 mph67%30.39 "Hg10 mi
9:30 AM55 °FSunny.9 mph67%30.39 "Hg10 mi
9:00 AM55 °FSunny.9 mph67%30.39 "Hg10 mi
8:30 AM52 °FSunny.6 mph77%30.36 "Hg10 mi
8:00 AM48 °FSunny.6 mph76%30.36 "Hg10 mi
7:30 AM46 °FSunny.6 mph82%30.36 "Hg10 mi
7:00 AM45 °FSunny.6 mph87%30.36 "Hg10 mi
6:30 AM45 °FClear.5 mph87%30.36 "Hg10 mi
6:00 AM45 °FClear.8 mph81%30.36 "Hg10 mi
Weather by CustomWeather, © 2015

See weather overviewHow to use our weather pages